This is the latest recevied weather packets stored in our database for station/object ZL1CTS-13. If no packets are shown the sender has not sent any weather packets the latest 10 day(s).
| Time | Temp. | Humidity | Pressure | Rain* | Wind** | Luminosity | Snow |
|---|---|---|---|---|---|---|---|
| 1777336804 | 21.67° C | 71% | 1016.1 hPa | 0 mm | - | - | - |
| 1777336204 | 21.11° C | 70% | 1016.3 hPa | 0 mm | - | - | - |
| 1777335604 | 21.67° C | 72% | 1016.3 hPa | 0 mm | - | - | - |
| 1777335004 | 21.11° C | 73% | 1016.4 hPa | 0 mm | - | - | - |
| 1777334404 | 21.67° C | 74% | 1016.4 hPa | 0 mm | - | - | - |
| 1777333804 | 21.11° C | 74% | 1016.4 hPa | 0 mm | - | - | - |
| 1777333204 | 21.11° C | 75% | 1016.4 hPa | 0 mm | - | - | - |
| 1777332604 | 20.56° C | 77% | 1016.6 hPa | 0 mm | - | - | - |
| 1777332004 | 20.56° C | 75% | 1016.3 hPa | 0 mm | - | - | - |
| 1777331404 | 21.11° C | 74% | 1016.1 hPa | 0 mm | - | - | - |
| 1777330804 | 21.67° C | 72% | 1016.2 hPa | 0 mm | - | - | - |
| 1777330204 | 21.11° C | 74% | 1016.1 hPa | 0 mm | - | - | - |
| 1777329604 | 21.11° C | 75% | 1016.1 hPa | 0 mm | - | - | - |
| 1777329004 | 20.56° C | 74% | 1015.9 hPa | 0 mm | - | - | - |
| 1777328404 | 20.56° C | 75% | 1015.9 hPa | 0 mm | - | - | - |
| 1777327804 | 20.56° C | 75% | 1015.8 hPa | 0 mm | - | - | - |
| 1777327203 | 20.56° C | 76% | 1015.9 hPa | 0 mm | - | - | - |
| 1777326604 | 20° C | 82% | 1015.9 hPa | 0 mm | - | - | - |
| 1777326004 | 20° C | 95% | 1015.9 hPa | 0 mm | - | - | - |
| 1777325404 | 17.78° C | 97% | 1015.7 hPa | 0 mm | - | - | - |
| 1777324804 | 15.56° C | 99% | 1015.8 hPa | 0 mm | - | - | - |
| 1777324204 | 15.56° C | 99% | 1015.8 hPa | 0 mm | - | - | - |
| 1777323604 | 15.56° C | 99% | 1015.9 hPa | 0 mm | - | - | - |
| 1777323005 | 13.89° C | 99% | 1015.7 hPa | 0 mm | - | - | - |
| 1777322403 | 13.89° C | 99% | 1015.8 hPa | 0 mm | - | - | - |
* Rain latest hour (hover to see other rain measurements)
** Current wind speed in m/s (hover to see current wind gust speed)